WB9WX Weather Reports


time (UTC)temp
C
wind
direction
speed
KPH
gust
KPH
rain 1hr
cm
rain 24hr
cm
rain mn
cm
humidity
%
barometer
mb
20260504034003 14 212 3.2 6.4 0.00 0.00 0.00 59 1004.8
20260504033505 14 243 1.6 8.0 0.00 0.00 0.00 59 1004.8
20260504033011 15 224 1.6 8.0 0.00 0.00 0.00 59 1004.9
20260504032503 15 236 1.6 6.4 0.00 0.00 0.00 58 1004.9
20260504032007 15 207 1.6 9.7 0.00 0.00 0.00 58 1005.0
20260504031510 15 250 1.6 9.7 0.00 0.00 0.00 57 1005.0
20260504031002 15 242 1.6 6.4 0.00 0.00 0.00 58 1005.0
20260504030505 15 245 1.6 9.7 0.00 0.00 0.00 58 1005.0
20260504030007 15 263 3.2 9.7 0.00 0.00 0.00 58 1005.0
20260504025503 15 227 1.6 9.7 0.00 0.00 0.00 58 1005.0
20260504025003 15 207 1.6 8.0 0.00 0.00 0.00 58 1005.0
20260504024518 15 229 1.6 9.7 0.00 0.00 0.00 58 1005.0
20260504024007 15 252 3.2 9.7 0.00 0.00 0.00 58 1005.0
20260504023507 15 211 3.2 8.0 0.00 0.00 0.00 58 1004.9
20260504023012 15 220 1.6 8.0 0.00 0.00 0.00 58 1004.9
20260504022504 15 256 4.8 8.0 0.00 0.00 0.00 58 1004.8
20260504022006 15 210 3.2 8.0 0.00 0.00 0.00 58 1004.9
20260504021511 15 198 1.6 6.4 0.00 0.00 0.00 57 1004.9
20260504021002 16 212 4.8 6.4 0.00 0.00 0.00 56 1004.8
20260504020503 15 229 1.6 6.4 0.00 0.00 0.00 57 1004.8
20260504020015 15 239 1.6 6.4 0.00 0.00 0.00 57 1004.8
20260504015507 15 216 3.2 6.4 0.00 0.00 0.00 57 1004.7
20260504015007 15 205 3.2 6.4 0.00 0.00 0.00 57 1004.7
20260504014514 15 231 1.6 6.4 0.00 0.00 0.00 58 1004.7
20260504014003 15 209 3.2 6.4 0.00 0.00 0.00 58 1004.6
20260504013503 15 169 3.2 4.8 0.00 0.00 0.00 57 1004.6
20260504013022 15 207 1.6 4.8 0.00 0.00 0.00 56 1004.6
20260504012504 15 212 1.6 3.2 0.00 0.00 0.00 55 1004.5
20260504012004 16 216 1.6 4.8 0.00 0.00 0.00 54 1004.5
20260504011513 16 223 1.6 4.8 0.00 0.00 0.00 53 1004.5
20260504011007 16 250 0.0 3.2 0.00 0.00 0.00 53 1004.4
20260504010503 16 238 0.0 3.2 0.00 0.00 0.00 52 1004.4
20260504010014 16 211 0.0 4.8 0.00 0.00 0.00 51 1004.4
20260504005506 17 229 0.0 4.8 0.00 0.00 0.00 50 1004.4
20260504005005 17 260 0.0 3.2 0.00 0.00 0.00 50 1004.4
20260504004516 17 255 0.0 4.8 0.00 0.00 0.00 49 1004.4
20260504004004 17 271 1.6 4.8 0.00 0.00 0.00 49 1004.5
20260504003506 17 261 0.0 4.8 0.00 0.00 0.00 48 1004.5
20260504003015 18 244 1.6 6.4 0.00 0.00 0.00 47 1004.5
20260504002503 18 260 1.6 6.4 0.00 0.00 0.00 47 1004.4
20260504002006 18 274 1.6 6.4 0.00 0.00 0.00 46 1004.4
20260504001515 18 276 1.6 12.9 0.00 0.00 0.00 45 1004.5
20260504001004 18 252 3.2 16.1 0.00 0.00 0.00 45 1004.5
20260504000505 18 282 3.2 16.1 0.00 0.00 0.00 44 1004.4
20260504000018 19 275 6.4 16.1 0.00 0.00 0.00 43 1004.4
20260503235503 18 295 4.8 16.1 0.00 0.00 0.00 44 1004.4
20260503235007 19 288 3.2 12.9 0.00 0.00 0.00 43 1004.4
20260503234508 19 292 4.8 12.9 0.00 0.00 0.00 43 1004.5
20260503234006 19 295 3.2 17.7 0.00 0.00 0.00 43 1004.5
20260503233505 19 269 6.4 17.7 0.00 0.00 0.00 43 1004.5
20260503233009 19 259 6.4 14.5 0.00 0.00 0.00 43 1004.5
20260503232506 19 280 4.8 14.5 0.00 0.00 0.00 43 1004.5
20260503232011 19 254 3.2 24.1 0.00 0.00 0.00 44 1004.6
20260503231518 19 265 9.7 24.1 0.00 0.00 0.00 42 1004.6
20260503231007 19 290 9.7 22.5 0.00 0.00 0.00 42 1004.7
20260503230508 19 264 8.0 24.1 0.00 0.00 0.00 41 1004.6
20260503230018 19 259 11.3 24.1 0.00 0.00 0.00 41 1004.7
20260503225504 19 281 11.3 20.9 0.00 0.00 0.00 41 1004.8
20260503225004 19 279 8.0 19.3 0.00 0.00 0.00 42 1004.7
20260503224507 20 288 6.4 19.3 0.00 0.00 0.00 42 1004.8
20260503224007 20 293 4.8 20.9 0.00 0.00 0.00 41 1004.8
20260503223507 20 231 8.0 20.9 0.00 0.00 0.00 41 1004.8
20260503223012 20 266 8.0 20.9 0.00 0.00 0.00 42 1004.8
20260503222502 19 267 6.4 17.7 0.00 0.00 0.00 44 1004.8
20260503222006 19 285 1.6 19.3 0.00 0.00 0.00 45 1004.8
20260503221528 19 262 8.0 20.9 0.00 0.00 0.00 42 1004.8
20260503221008 19 193 6.4 20.9 0.00 0.00 0.00 42 1004.8
20260503220508 19 193 6.4 17.7 0.00 0.00 0.00 44 1004.8
20260503220020 19 288 3.2 30.6 0.00 0.00 0.00 44 1004.8
20260503215504 19 231 11.3 25.7 0.00 0.00 0.00 44 1005.0
20260503215008 19 255 4.8 22.5 0.00 0.00 0.00 44 1005.0
20260503214524 19 219 8.0 22.5 0.00 0.00 0.00 44 1004.9
20260503214008 19 268 6.4 30.6 0.00 0.00 0.00 44 1005.0
20260503213502 18 305 9.7 30.6 0.00 0.00 0.00 44 1005.0
20260503213018 18 197 8.0 25.7 0.00 0.00 0.00 43 1005.3
20260503212503 18 262 9.7 25.7 0.00 0.00 0.00 42 1005.4
20260503212006 19 268 11.3 30.6 0.00 0.00 0.00 43 1005.4
20260503211518 18 222 6.4 30.6 0.00 0.00 0.00 43 1005.4
20260503211009 18 263 8.0 33.8 0.00 0.00 0.00 44 1005.5
20260503210506 18 194 9.7 33.8 0.00 0.00 0.00 45 1005.5
20260503210022 18 256 9.7 33.8 0.00 0.00 0.00 43 1005.7
20260503205507 18 259 6.4 33.8 0.00 0.00 0.00 44 1005.6
20260503205010 18 166 9.7 25.7 0.00 0.00 0.00 44 1005.7
20260503204525 18 233 9.7 40.2 0.00 0.00 0.00 45 1005.8
20260503204010 18 23 11.3 40.2 0.00 0.00 0.00 43 1006.1
20260503203507 18 274 9.7 33.8 0.00 0.00 0.00 44 1006.0
20260503203020 18 236 9.7 40.2 0.00 0.00 0.00 46 1006.2
20260503202505 18 214 6.4 40.2 0.00 0.00 0.00 49 1006.5
20260503202006 17 268 9.7 35.4 0.00 0.00 0.00 49 1006.5
20260503201525 17 280 14.5 38.6 0.00 0.00 0.00 48 1006.6
20260503201008 17 230 8.0 38.6 0.00 0.00 0.00 53 1006.7
20260503200506 17 250 11.3 33.8 0.00 0.00 0.00 50 1007.0
20260503200027 17 242 8.0 29.0 0.00 0.00 0.00 51 1007.1
20260503195507 17 243 8.0 38.6 0.00 0.00 0.00 49 1007.2
20260503195007 17 229 9.7 45.1 0.00 0.00 0.00 49 1007.5
20260503194527 16 218 11.3 45.1 0.00 0.00 0.00 50 1007.6
20260503194007 17 187 12.9 29.0 0.00 0.00 0.00 47 1007.6
20260503193506 17 222 4.8 27.4 0.00 0.00 0.00 48 1007.6
20260503193024 17 278 9.7 24.1 0.00 0.00 0.00 49 1007.7
20260503192509 16 167 8.0 25.7 0.00 0.00 0.00 48 1007.7
20260503192008 16 303 9.7 29.0 0.00 0.00 0.00 48 1007.8
20260503191515 16 234 8.0 43.5 0.00 0.00 0.00 50 1007.8
20260503191006 16 229 14.5 43.5 0.00 0.00 0.00 46 1007.7
20260503190506 16 205 11.3 38.6 0.00 0.00 0.00 45 1007.8
20260503190022 17 199 11.3 29.0 0.00 0.00 0.00 45 1007.6
20260503185507 16 206 9.7 35.4 0.00 0.00 0.00 45 1007.7
20260503185009 16 234 12.9 45.1 0.00 0.00 0.00 45 1007.6
20260503184526 16 197 16.1 45.1 0.00 0.00 0.00 48 1007.8
20260503184006 16 203 9.7 40.2 0.00 0.00 0.00 48 1007.8
20260503183515 16 191 4.8 40.2 0.00 0.00 0.00 49 1008.0
20260503183034 16 253 16.1 40.2 0.00 0.00 0.00 49 1008.1
20260503182507 16 214 12.9 37.0 0.00 0.00 0.00 47 1008.2
20260503182009 16 230 11.3 37.0 0.00 0.00 0.00 48 1008.1
20260503181535 15 202 11.3 37.0 0.00 0.00 0.00 49 1008.1
20260503181008 16 195 14.5 40.2 0.00 0.00 0.00 50 1008.3
20260503180504 15 175 11.3 41.8 0.00 0.00 0.00 51 1008.3
20260503180016 15 219 14.5 41.8 0.00 0.00 0.00 48 1008.5
20260503175503 15 210 9.7 38.6 0.00 0.00 0.00 53 1008.6
20260503175009 15 222 16.1 33.8 0.00 0.00 0.00 53 1008.7
20260503174521 15 178 11.3 38.6 0.00 0.00 0.00 54 1008.8
20260503174007 14 167 20.9 38.6 0.00 0.00 0.00 54 1009.1
20260503173509 14 220 20.9 37.0 0.00 0.00 0.00 56 1009.2
20260503173040 14 187 16.1 37.0 0.00 0.00 0.00 59 1009.3
20260503172506 14 294 8.0 27.4 0.00 0.00 0.00 58 1009.3
20260503172006 13 192 11.3 35.4 0.00 0.00 0.00 59 1009.6
20260503171524 13 231 17.7 35.4 0.00 0.00 0.00 57 1009.7
20260503171007 13 212 6.4 32.2 0.00 0.00 0.00 61 1009.9
20260503170508 12 153 16.1 32.2 0.00 0.00 0.00 60 1010.1
20260503151003 12 211 11.3 25.7 0.00 0.00 0.00 55 1011.5
20260503150507 12 265 11.3 25.7 0.00 0.03 0.00 53 1011.5
20260503131007 11 230 1.6 17.7 0.00 0.20 0.00 56 1012.2
20260503130500 10 207 6.4 35.4 0.00 0.20 0.00 55 1012.3
20260503110508 -17 0.0 0.0 0.00 0.30 0.00 1011.9
20260503090513 -17 0.0 0.0 0.00 0.30 0.00 1012.7
20260503081515 9 236 4.8 16.1 0.00 0.30 0.00 49 1013.0
20260503081007 9 206 4.8 14.5 0.00 0.30 0.00 48 1013.0
20260503080506 9 250 4.8 19.3 0.00 0.30 0.00 50 1013.1
20260503072509 8 248 4.8 11.3 0.00 0.30 0.00 49 1013.1
20260503072009 8 251 1.6 9.7 0.00 0.30 0.00 49 1013.2
20260503071529 8 246 3.2 16.1 0.00 0.30 0.00 49 1013.3
20260503071008 8 250 4.8 16.1 0.00 0.30 0.00 49 1013.4
20260503070502 8 253 4.8 16.1 0.00 0.30 0.00 49 1013.5
20260503055006 8 281 1.6 12.9 0.00 0.30 0.00 51 1013.9
20260503054521 8 256 3.2 14.5 0.00 0.30 0.00 50 1013.9
20260503054011 8 232 3.2 14.5 0.00 0.30 0.00 51 1014.0
20260503053505 8 266 1.6 12.9 0.00 0.30 0.00 50 1014.0
20260503053031 8 231 4.8 14.5 0.00 0.30 0.00 50 1014.1
20260503052508 8 229 3.2 17.7 0.00 0.30 0.00 51 1014.1
20260503052008 8 301 4.8 17.7 0.00 0.33 0.00 52 1014.2
20260503051526 8 236 1.6 17.7 0.00 0.33 0.00 52 1014.2
20260503051003 8 226 4.8 17.7 0.00 0.33 0.00 52 1014.2
20260503050505 8 263 4.8 16.1 0.00 0.33 0.00 52 1014.3
20260503050007 8 232 6.4 17.7 0.00 0.33 0.00 51 1014.3
20260503045505 8 250 4.8 17.7 0.00 0.33 0.33 52 1014.3
20260503045005 8 268 1.6 12.9 0.00 0.33 0.33 53 1014.4
20260503044522 8 192 3.2 12.9 0.00 0.33 0.33 52 1014.4
20260503044005 8 226 1.6 12.9 0.00 0.33 0.33 52 1014.4
20260503043505 8 245 1.6 14.5 0.00 0.33 0.33 52 1014.4
20260503043016 8 233 1.6 14.5 0.00 0.33 0.33 51 1014.5
20260503042505 8 236 3.2 12.9 0.00 0.33 0.33 52 1014.5
20260503042008 8 262 3.2 12.9 0.00 0.33 0.33 51 1014.5
20260503041522 8 239 3.2 9.7 0.00 0.33 0.33 51 1014.6
20260503041007 8 242 1.6 14.5 0.00 0.33 0.33 52 1014.6
20260503040514 8 234 1.6 14.5 0.00 0.33 0.33 51 1014.6
20260503040014 8 259 3.2 14.5 0.00 0.33 0.33 51 1014.6
20260503035503 9 269 3.2 12.9 0.00 0.33 0.33 51 1014.7
20260503035003 8 288 4.8 12.9 0.00 0.33 0.33 52 1014.7
20260503034512 9 292 3.2 12.9 0.00 0.33 0.33 51 1014.7